[keps] GOSAT 2-Line KEPs Update 2-5-09

Ray Hoad r.hoad at att.net
Thu Feb 5 20:13:19 PST 2009


Here are updated KEPs of the GOSAT IBUKI satellite launch on January 23, 
2009 for the various objects in orbit.

OBJECT A
1 33492U 09002A   09036.84807667  .00000570  00000-0  10489-3 0   433
2 33492 098.0478 148.2643 0008209 324.5136 035.5452 14.69290009  2006
OBJECT B
1 33493U 09002B   09036.86036385 -.00000030  00000-0  31838-5 0   724
2 33493 098.0458 148.6038 0019266 308.9638 050.9823 14.80606829  2035
OBJECT C
1 33494U 09002C   09036.76649134  .00000002  00000-0  85474-5 0   437
2 33494 098.0325 148.2178 0003449 335.0389 025.0650 14.68702282  2004
OBJECT D
1 33495U 09002D   09036.75334341 -.00000021  00000-0  46489-5 0   433
2 33495 098.0277 148.2199 0008919 016.5422 343.6081 14.70127932  1978
OBJECT E
1 33496U 09002E   09036.75985375  .00000016  00000-0  10928-4 0   412
2 33496 098.0276 148.2135 0006572 352.3562 007.7550 14.69421326  1978
OBJECT F
1 33497U 09002F   09036.77705643  .00000046  00000-0  16448-4 0   431
2 33497 098.0307 148.1981 0001724 166.0852 194.0407 14.67561246  1973
OBJECT G
1 33498U 09002G   09036.74287306  .00000132  00000-0  29431-4 0   432
2 33498 098.0275 148.2476 0013629 028.6701 331.5255 14.71267665  1984
OBJECT H
1 33499U 09002H   09036.74848354  .00000064  00000-0  18546-4 0   449
2 33499 098.0296 148.2390 0010716 027.1974 332.9790 14.70657109  1987







More information about the Keps mailing list